EW4321 Weather Reports


time (UTC)temp
F
wind
direction
speed
knots
gust
knots
rain 1hr
in
rain 24hr
in
rain mn
in
humidity
%
barometer
mb
20260502140106 55 27 1.7 3.5 0.00 0.00 0.00 83 1013.4
20260502130606 54 298 2.6 7.8 0.00 0.00 0.00 87 1013.5
20260502130106 54 290 3.5 7.8 0.00 0.00 0.00 87 1013.5
20260502123607 53 299 6.1 9.6 0.00 0.00 0.00 89 1013.6
20260502123106 53 281 7.8 9.6 0.00 0.00 0.00 88 1013.6
20260502122606 53 274 7.8 10.4 0.00 0.00 0.00 89 1013.7
20260502122107 53 267 8.7 10.4 0.00 0.00 0.00 89 1013.6
20260502121648 53 277 7.8 9.6 0.00 0.00 0.00 88 1013.5
20260502121106 53 271 7.0 7.8 0.00 0.00 0.00 89 1013.4
20260502120607 52 271 6.1 7.8 0.00 0.00 0.00 90 1013.3
20260502120107 52 267 5.2 7.8 0.00 0.00 0.00 90 1013.4
20260502115606 52 252 5.2 7.0 0.00 0.00 0.00 89 1013.5
20260502115107 52 235 4.3 7.0 0.00 0.00 0.00 90 1013.6
20260502114607 52 275 4.3 7.8 0.00 0.00 0.00 90 1013.6
20260502114106 52 251 5.2 9.6 0.00 0.00 0.00 90 1013.5
20260502113606 52 265 6.1 9.6 0.00 0.00 0.00 90 1013.5
20260502113106 52 267 7.0 9.6 0.00 0.00 0.00 90 1013.5
20260502112606 52 263 7.0 10.4 0.00 0.00 0.00 90 1013.5
20260502112106 52 268 8.7 10.4 0.00 0.00 0.00 90 1013.5
20260502111606 52 260 7.0 10.4 0.00 0.00 0.00 91 1013.4
20260502111106 52 263 8.7 10.4 0.00 0.00 0.00 91 1013.4
20260502110628 52 253 7.0 7.8 0.00 0.00 0.00 92 1013.4
20260502110106 52 254 6.1 8.7 0.00 0.00 0.00 92 1013.3
20260502105609 52 263 7.0 8.7 0.00 0.00 0.00 91 1013.3
20260502105106 52 259 6.1 7.8 0.00 0.00 0.00 91 1013.1
20260502104606 51 251 4.3 7.0 0.00 0.00 0.00 92 1013.1
20260502104106 51 233 3.5 6.1 0.00 0.00 0.00 91 1013.0
20260502103607 51 224 4.3 6.1 0.00 0.00 0.00 92 1013.0
20260502103106 51 213 3.5 7.8 0.00 0.00 0.00 92 1012.8
20260502102606 51 236 5.2 7.8 0.00 0.00 0.00 93 1012.9
20260502102107 51 239 3.5 7.0 0.00 0.00 0.00 94 1012.8
20260502101628 51 246 3.5 7.0 0.00 0.00 0.00 94 1012.9
20260502101127 51 241 4.3 7.0 0.00 0.00 0.00 94 1012.9
20260502100606 51 235 4.3 6.1 0.00 0.00 0.00 95 1012.9
20260502100106 50 222 2.6 4.3 0.00 0.00 0.00 94 1012.9
20260502091106 51 227 3.5 7.0 0.00 0.00 0.00 94 1013.0
20260502090627 51 213 4.3 7.8 0.00 0.00 0.00 94 1012.9
20260502090106 51 209 4.3 7.8 0.00 0.00 0.00 94 1012.9
20260502080106 51 218 6.1 10.4 0.00 0.00 0.00 93 1013.1
20260502071127 50 183 6.1 12.2 0.00 0.00 0.00 93 1013.3
20260502070606 50 194 7.0 13.0 0.00 0.00 0.00 93 1013.4
20260502070106 50 191 7.0 13.0 0.00 0.00 0.00 93 1013.3
20260502065606 50 187 8.7 13.0 0.00 0.00 0.00 92 1013.4
20260502065106 50 194 7.8 13.0 0.00 0.00 0.00 92 1013.5
20260502064606 50 192 8.7 13.0 0.00 0.00 0.00 92 1013.4
20260502064108 50 189 7.8 13.0 0.00 0.00 0.00 92 1013.3
20260502063606 50 195 7.8 15.6 0.00 0.00 0.00 91 1013.4
20260502063105 50 191 9.6 16.5 0.00 0.00 0.00 91 1013.5
20260502062630 50 188 9.6 16.5 0.00 0.00 0.00 91 1013.5
20260502062106 50 192 7.8 13.0 0.00 0.00 0.00 90 1013.4
20260502061606 50 190 7.8 13.9 0.00 0.00 0.00 90 1013.5
20260502061106 50 198 8.7 13.9 0.00 0.00 0.00 90 1013.7
20260502060606 50 197 7.0 13.0 0.00 0.00 0.00 90 1013.7
20260502060106 50 190 7.0 13.0 0.00 0.00 0.00 90 1013.7
20260502055606 50 193 8.7 14.8 0.00 0.00 0.00 90 1013.8
20260502055127 50 194 9.6 15.6 0.00 0.00 0.00 90 1013.9
20260502054606 50 197 10.4 15.6 0.00 0.00 0.00 90 1014.0
20260502054106 50 199 10.4 15.6 0.00 0.00 0.00 90 1014.1
20260502053605 50 189 9.6 13.9 0.00 0.00 0.00 90 1014.2
20260502053106 50 198 8.7 15.6 0.00 0.00 0.00 90 1014.2
20260502052607 50 210 10.4 15.6 0.00 0.00 0.00 90 1014.3
20260502052106 50 194 9.6 14.8 0.00 0.00 0.00 90 1014.2
20260502051606 50 195 8.7 16.5 0.00 0.00 0.00 90 1014.2
20260502051106 50 189 7.8 16.5 0.00 0.00 0.00 90 1014.1
20260502050606 50 190 7.0 15.6 0.00 0.00 0.00 90 1014.2
20260502050106 50 199 9.6 15.6 0.00 0.00 0.00 89 1014.1
20260502045606 50 197 7.8 16.5 0.00 0.00 0.00 89 1014.2
20260502045106 50 190 10.4 20.0 0.00 0.00 0.00 89 1014.1
20260502044606 50 195 12.2 20.0 0.00 0.00 0.00 89 1014.2
20260502044106 50 193 11.3 18.2 0.00 0.00 0.00 89 1014.1
20260502043606 50 198 11.3 16.5 0.00 0.00 0.00 89 1014.0
20260502043106 50 192 11.3 16.5 0.00 0.00 0.00 90 1013.9
20260502042606 50 184 8.7 14.8 0.00 0.00 0.00 90 1013.7
20260502042106 50 184 10.4 14.8 0.00 0.00 0.00 90 1013.8
20260502041607 50 187 8.7 13.9 0.00 0.00 0.00 90 1013.9
20260502041128 50 188 9.6 14.8 0.00 0.00 0.00 90 1014.0
20260502040606 50 185 8.7 15.6 0.00 0.00 0.00 90 1014.1
20260502040106 50 195 7.8 15.6 0.00 0.00 0.00 90 1014.1
20260502035606 50 198 7.8 13.9 0.00 0.50 0.00 90 1014.1
20260502035107 50 197 7.8 13.9 0.00 0.00 0.00 90 1014.0
20260502034606 50 192 9.6 13.9 0.00 0.00 0.00 91 1013.9
20260502034105 50 186 7.8 13.9 0.00 0.00 0.00 91 1013.8
20260502033606 50 183 7.8 13.9 0.00 0.00 0.00 90 1013.5
20260502033106 50 180 7.0 12.2 0.00 0.00 0.00 90 1013.6
20260502032606 50 184 8.7 13.9 0.00 0.00 0.00 90 1013.7
20260502032106 50 182 8.7 14.8 0.00 0.00 0.00 90 1014.0
20260502031606 50 174 9.6 14.8 0.00 0.00 0.00 90 1014.0
20260502031127 50 178 9.6 14.8 0.00 0.00 0.00 90 1014.0
20260502030606 50 180 7.8 15.6 0.00 0.00 0.00 90 1014.1
20260502025606 50 182 10.4 15.6 0.00 0.00 0.00 89 1014.0
20260502025106 50 189 8.7 17.4 0.00 0.00 0.00 89 1014.2
20260502024606 50 194 10.4 17.4 0.00 0.00 0.00 89 1014.5
20260502023606 50 192 9.6 17.4 0.00 0.00 0.00 89 1014.6
20260502023106 50 191 7.8 17.4 0.00 0.00 0.00 89 1014.6
20260502022606 50 191 8.7 15.6 0.00 0.00 0.00 89 1014.6
20260502022106 50 184 9.6 15.6 0.00 0.00 0.00 88 1014.7
20260502021606 50 183 11.3 15.6 0.00 0.00 0.00 88 1014.7
20260502021106 50 187 10.4 15.6 0.00 0.00 0.00 88 1014.7
20260502020605 50 197 7.8 20.9 0.00 0.00 0.00 88 1014.6
20260502020106 50 184 9.6 20.9 0.00 0.00 0.00 88 1014.5
20260502015606 50 187 9.6 17.4 0.00 0.00 0.00 88 1014.4
20260502015106 50 188 10.4 17.4 0.00 0.00 0.00 88 1014.4
20260502014606 51 187 7.8 14.8 0.00 0.00 0.00 88 1014.3
20260502014106 51 184 8.7 14.8 0.00 0.00 0.00 88 1014.2
20260502013606 51 177 10.4 13.9 0.00 0.00 0.00 88 1014.3
20260502013106 51 185 10.4 13.9 0.00 0.00 0.00 88 1014.3
20260502012606 51 190 9.6 13.9 0.00 0.00 0.00 87 1014.2
20260502012106 51 187 7.8 13.9 0.00 0.00 0.00 87 1014.3
20260502011605 51 195 7.8 13.9 0.00 0.00 0.00 87 1014.3
20260502011106 51 188 7.8 14.8 0.00 0.00 0.00 87 1014.3
20260502010605 51 192 8.7 14.8 0.00 0.00 0.00 86 1014.1
20260502010106 51 188 8.7 14.8 0.00 0.00 0.00 86 1014.2
20260502005606 51 189 9.6 14.8 0.00 0.00 0.00 86 1014.1
20260502005106 51 188 9.6 12.2 0.00 0.00 0.00 86 1013.9
20260502004607 51 189 7.8 13.0 0.00 0.00 0.00 85 1013.9
20260502004106 51 184 8.7 13.0 0.00 0.00 0.00 85 1013.9
20260502003606 51 190 8.7 13.0 0.00 0.00 0.00 85 1013.8
20260502003106 51 186 8.7 16.5 0.00 0.00 0.00 84 1013.8
20260502002605 51 197 10.4 17.4 0.00 0.00 0.00 84 1013.8
20260502002106 51 189 10.4 17.4 0.00 0.00 0.00 84 1013.8
20260502001606 51 189 9.6 16.5 0.00 0.00 0.00 83 1013.6
20260502001106 51 194 12.2 18.2 0.00 0.00 0.00 83 1013.7
20260502000627 51 191 13.0 19.1 0.00 0.00 0.00 83 1013.5
20260502000107 51 189 11.3 19.1 0.00 0.00 0.00 82 1013.5
20260501235606 51 191 11.3 19.1 0.00 0.00 0.00 82 1013.6
20260501235127 52 190 13.0 20.0 0.00 0.00 0.00 82 1013.5
20260501234627 52 187 11.3 20.0 0.00 0.00 0.00 82 1013.4
20260501234106 52 189 11.3 18.2 0.00 0.00 0.00 82 1013.4
20260501233627 52 196 11.3 18.2 0.00 0.00 0.00 82 1013.4
20260501233106 53 192 12.2 19.1 0.00 0.00 0.00 81 1013.4
20260501232628 53 188 11.3 19.1 0.00 0.00 0.00 81 1013.2
20260501232106 53 189 11.3 19.1 0.00 0.00 0.00 81 1013.1
20260501231606 53 199 13.9 19.1 0.00 0.00 0.00 81 1013.1
20260501231106 53 191 10.4 19.1 0.00 0.00 0.00 82 1013.1
20260501230606 54 191 11.3 20.9 0.00 0.00 0.00 81 1013.1
20260501230105 54 195 13.9 20.9 0.00 0.00 0.00 81 1013.0
20260501225606 54 195 13.0 20.0 0.00 0.00 0.00 81 1012.9
20260501225106 54 194 14.8 20.0 0.00 0.00 0.00 80 1012.9
20260501224606 54 194 12.2 20.0 0.00 0.00 0.00 80 1013.0
20260501224106 55 194 13.9 19.1 0.00 0.00 0.00 79 1012.9
20260501223606 55 184 11.3 20.0 0.00 0.00 0.00 81 1012.9
20260501223127 55 191 11.3 22.6 0.00 0.00 0.00 80 1012.9
20260501222627 55 183 14.8 22.6 0.00 0.00 0.00 80 1012.8
20260501222106 55 183 11.3 20.9 0.00 0.00 0.00 80 1012.8
20260501221606 55 176 13.9 20.9 0.00 0.00 0.00 79 1012.9
20260501221106 56 186 13.9 21.7 0.00 0.00 0.00 80 1012.9
20260501220606 56 179 12.2 21.7 0.00 0.00 0.00 80 1012.8
20260501220106 56 173 11.3 19.1 0.00 0.00 0.00 80 1012.8
20260501215628 56 176 11.3 20.0 0.00 0.00 0.00 79 1012.8
20260501215105 56 176 12.2 20.0 0.00 0.00 0.00 79 1012.7
20260501214606 57 176 13.0 19.1 0.00 0.00 0.00 78 1012.8
20260501214106 57 172 12.2 18.2 0.00 0.00 0.00 77 1012.8
20260501213606 57 180 11.3 18.2 0.00 0.00 0.00 77 1012.8
20260501213148 57 173 12.2 17.4 0.00 0.00 0.00 78 1012.8
20260501212606 57 178 12.2 17.4 0.00 0.00 0.00 78 1012.8
20260501211606 58 171 12.2 20.9 0.00 0.00 0.00 78 1012.8
20260501211127 58 171 13.0 20.0 0.00 0.00 0.00 77 1012.8
20260501210606 58 177 11.3 18.2 0.00 0.00 0.00 76 1012.9
20260501210106 59 168 12.2 14.8 0.00 0.00 0.00 76 1013.0
20260501205605 59 177 9.6 14.8 0.00 0.00 0.00 76 1013.0
20260501205106 59 177 7.8 14.8 0.00 0.00 0.00 76 1013.0
20260501204607 59 172 9.6 15.6 0.00 0.00 0.00 75 1013.0
20260501204105 59 185 7.8 15.6 0.00 0.00 0.00 77 1012.9
20260501203606 58 171 9.6 16.5 0.00 0.00 0.00 78 1012.9
20260501203106 58 167 10.4 16.5 0.00 0.00 0.00 77 1012.8
20260501202606 59 166 12.2 17.4 0.00 0.00 0.00 76 1012.9
20260501202106 59 164 11.3 17.4 0.00 0.00 0.00 76 1012.9
20260501201606 59 168 10.4 17.4 0.00 0.00 0.00 75 1013.0
20260501201106 59 164 12.2 17.4 0.00 0.00 0.00 74 1013.0
20260501200606 59 170 9.6 16.5 0.00 0.00 0.00 74 1013.0
20260501200127 59 167 9.6 16.5 0.00 0.00 0.00 76 1013.1
20260501195609 59 167 9.6 17.4 0.00 0.00 0.00 76 1013.2
20260501195126 59 172 11.3 17.4 0.00 0.00 0.00 75 1013.4
20260501194606 59 176 9.6 16.5 0.00 0.00 0.00 76 1013.4
20260501194106 59 170 10.4 16.5 0.00 0.00 0.00 75 1013.4
20260501193607 59 172 9.6 15.6 0.00 0.00 0.00 77 1013.4
20260501193127 59 170 11.3 15.6 0.00 0.00 0.00 76 1013.5
20260501192606 59 171 10.4 15.6 0.00 0.00 0.00 77 1013.6
20260501192127 58 172 11.3 17.4 0.00 0.00 0.00 77 1013.6
20260501191606 58 168 10.4 17.4 0.00 0.00 0.00 77 1013.6
20260501191127 58 173 11.3 16.5 0.00 0.00 0.00 76 1013.6
20260501190606 58 177 12.2 16.5 0.00 0.00 0.00 76 1013.7
20260501190105 58 179 10.4 20.0 0.00 0.00 0.00 77 1013.8
20260501185606 58 172 12.2 20.0 0.00 0.00 0.00 75 1013.9
20260501185105 58 178 13.0 19.1 0.00 0.00 0.00 74 1014.0
20260501184627 58 173 11.3 17.4 0.00 0.00 0.00 76 1014.0
20260501184106 58 173 11.3 17.4 0.00 0.00 0.00 75 1014.0
20260501183606 58 173 12.2 16.5 0.00 0.00 0.00 75 1014.1
20260501183106 58 174 12.2 16.5 0.00 0.00 0.00 76 1014.2
20260501182627 57 178 12.2 19.1 0.00 0.00 0.00 75 1014.1
20260501182106 58 174 12.2 19.1 0.00 0.00 0.00 75 1014.1
20260501181606 58 174 12.2 18.2 0.00 0.00 0.00 75 1014.1
20260501181105 58 178 11.3 18.2 0.00 0.00 0.00 75 1014.0
20260501180606 58 182 11.3 19.1 0.00 0.00 0.00 75 1014.1
20260501180106 58 174 12.2 19.1 0.00 0.00 0.00 74 1014.0
20260501175606 58 174 12.2 19.1 0.00 0.00 0.00 73 1014.0
20260501175127 59 175 10.4 16.5 0.00 0.00 0.00 71 1014.1
20260501174605 59 171 9.6 14.8 0.00 0.01 0.00 71 1014.1
20260501174129 59 166 9.6 15.6 0.00 0.01 0.00 72 1014.2
20260501173606 59 164 10.4 15.6 0.00 0.01 0.00 71 1014.2
20260501173105 60 163 9.6 14.8 0.00 0.01 0.00 70 1014.2
20260501172627 60 153 9.6 16.5 0.00 0.01 0.00 70 1014.2
20260501172106 59 152 7.8 16.5 0.00 0.01 0.00 70 1014.2
20260501171605 59 160 8.7 14.8 0.00 0.01 0.00 68 1014.2
20260501171106 59 156 9.6 16.5 0.00 0.01 0.00 69 1014.3
20260501170106 59 152 9.6 16.5 0.00 0.01 0.00 68 1014.3
20260501165605 59 155 9.6 16.5 0.00 0.01 0.00 69 1014.4
20260501165127 58 146 7.0 12.2 0.00 0.01 0.00 72 1014.4
20260501164606 58 144 7.8 11.3 0.00 0.01 0.00 71 1014.3
20260501164106 58 143 8.7 12.2 0.00 0.01 0.00 71 1014.5
20260501163606 58 145 7.8 12.2 0.00 0.01 0.00 70 1014.5
20260501163105 58 138 8.7 11.3 0.00 0.01 0.00 70 1014.5
20260501162606 59 130 8.7 10.4 0.00 0.01 0.00 70 1014.6
20260501162105 59 127 7.0 10.4 0.00 0.01 0.00 68 1014.7
20260501161606 59 124 7.0 7.8 0.00 0.01 0.00 67 1014.7
20260501161105 59 123 2.6 8.7 0.00 0.01 0.00 65 1014.7
20260501160606 59 124 6.1 8.7 0.00 0.01 0.00 67 1014.9
20260501160106 60 133 6.1 9.6 0.00 0.01 0.00 67 1015.0
20260501155606 60 139 7.0 9.6 0.00 0.01 0.00 66 1015.1
20260501155106 60 135 7.0 9.6 0.00 0.01 0.00 64 1015.1
20260501154605 60 151 5.2 9.6 0.00 0.01 0.00 66 1015.2
20260501154107 59 179 5.2 9.6 0.00 0.01 0.00 68 1015.3
20260501153627 58 169 5.2 9.6 0.00 0.01 0.00 70 1015.4
20260501153105 57 153 5.2 8.7 0.00 0.01 0.00 70 1015.5
20260501152627 56 308 0.9 5.2 0.00 0.01 0.00 65 1015.5
20260501152106 56 302 3.5 5.2 0.00 0.01 0.00 67 1015.5
20260501151606 56 302 2.6 5.2 0.00 0.01 0.00 69 1015.5
20260501151106 56 319 2.6 5.2 0.00 0.01 0.00 66 1015.5
20260501150607 56 310 2.6 5.2 0.00 0.01 0.00 69 1015.5
20260501150105 55 300 3.5 5.2 0.00 0.01 0.00 70 1015.5
20260501145606 55 322 2.6 5.2 0.00 0.01 0.00 68 1015.4
20260501145105 55 338 1.7 7.0 0.00 0.01 0.00 71 1015.3
20260501144606 55 313 3.5 7.0 0.00 0.01 0.00 69 1015.4
20260501144106 55 357 3.5 7.0 0.00 0.01 0.00 70 1015.3